www.pogodaiklimat.ru

Погода и климат >> Архив погоды >> Индия >> Манипур >> Импхал


ПОГОДА в Импхале

  • Прогноз погоды в Импхале
  • Монитор погоды в Импхале

АРХИВ ПОГОДЫ в Импхале

Время (UTC), дата Ветер
(напр.,м/с)
 
Видим.   Явления Облачность Т
(С)
Тd
(С)
f
(%)
Тe
(С)
Тes
(С)
Комфортность P
(гПа)
Po
(гПа)
Тmin
(С)
Tmax
(С)
R
(мм)
R24
(мм)
S
(см)
15 16.09 СЗ 3 2000 м слаб. дождь 9/6 300 м
[Frnb As op]
+22.4 +22.4 100 +30 +30 очень
душно
1007.5 921.9 23
18 16.09 СВ 2 2000 м дымка {дождь} 9/6 300 м
[Frnb Ac trans]
+22.2 +22.2 100 +30 +30 очень
душно
1008.2 922.5 24
21 16.09 В 1 2000 м дымка 9/6 300 м
[Frnb Ac trans]
+22.2 +22.2 100 +30 +30 очень
душно
1008.1 922.5 24
00 17.09 В 2 2000 м дымка 9/6 300 м
[Frnb Ac trans]
+22.2 +22.2 100 +30 +30 очень
душно
1009.4 923.6 24
03 17.09 З 1 4000 м дымка 9/6 240 м
[Frnb Ac trans]
+24.8 +22.5 87 +32 +35 очень
душно
1009.9 924.7 +20.5 24
06 17.09 Ю 2 4000 м мгла 6/4 540 м
[Sc diur, vesp Ac trans]
+29.2 +24.2 74 +41 +50 опасность
перегрева
1007.5 923.5
09 17.09 Ю 2 4000 м мгла 6/6 540 м
[Cu hum]
+30.4 +21.8 60 +39 +42 очень
душно
1004.5 921.3
12 17.09 З 1 4000 м дымка 8/5 540 м
[Sc diur, vesp Ac trans]
+27.6 +22.8 75 +37 +37 очень
душно
1006.1 922.1 +30.9
15 17.09 В 1 4000 м дымка 8/5 540 м
[Sc Ac trans]
+24.6 +23.5 94 +33 +33 очень
душно
1007.4 923.6
18 17.09 В 2 2000 м дымка 9/6 540 м
[St Ac trans]
+24.4 +23.0 92 +32 +32 очень
душно
1006.3 921.5
21 17.09 З 1 2000 м дымка 8/5 300 м
[St Ac trans]
+23.8 +22.1 90 +31 +31 очень
душно
1008.9 923.8
00 18.09 штиль 0 2000 м дымка 8/5 300 м
[St Ac trans]
+22.4 +22.1 98 +30 +30 очень
душно
1009.8 924.0
03 18.09 С 1 4000 м дымка 5/5 540 м
[Cu hum]
+26.6 +22.9 80 +35 +41 очень
душно
1010.7 926.9 +20.8
06 18.09 Ю 2 4000 м мгла 5/5 540 м
[Cu hum]
+30.6 +22.7 63 +40 +49 очень
душно
1009.2 925.7
09 18.09 ЮВ 1 4000 м мгла 8/4 540 м
[Sc Ac trans]
+31.4 +23.6 63 +42 +46 опасность
перегрева
1006.0 923.0
12 18.09 Ю 1 4000 м мгла 6/4 540 м
[Sc Ac trans]
+29.2 +23.3 71 +40 +40 очень
душно
1006.2 922.6 +32.0
15 18.09 З 1 2000 м дымка 6/4 540 м
[Sc Ac trans]
+24.4 +22.4 89 +32 +32 очень
душно
1010.4 925.2
18 18.09 Ю 1 2000 м дымка 6/4 540 м
[Sc Ac trans]
+23.0 +22.7 98 +32 +32 очень
душно
1011.5 925.6
21 18.09 Ю 1 2000 м дымка 6/4 540 м
[Sc Ac trans]
+22.6 +22.3 98 +30 +30 очень
душно
1011.0 925.2
00 19.09 Ю 1 2000 м дымка 5/4 540 м
[Sc Ac trans]
+21.4 +21.1 98 +27 +27 душно 1011.7 925.6
03 19.09 ЮВ 2 4000 м дымка 9/4 540 м
[Sc Ac trans]
+26.4 +22.4 79 +35 +38 очень
душно
1011.9 927.1 +19.9
06 19.09 Ю 3 4000 м мгла 8/4 540 м
[Sc Ac trans]
+29.0 +22.8 69 +38 +44 очень
душно
1009.3 925.2
09 19.09 В 3 4000 м мгла 8/4 540 м
[Sc Ac trans]
+32.2 +23.2 59 +43 +45 опасность
перегрева
1004.1 921.6
12 19.09 В 1 4000 м мгла 5/3 540 м
[Sc Ac trans]
+29.4 +21.0 61 +37 +37 очень
душно
1005.7 922.4 +32.2
15 19.09 ЮВ 1 4000 м дымка 5/3 540 м
[Sc Ac trans]
+25.2 +22.9 87 +33 +33 очень
душно
1009.5 924.6
18 19.09 штиль 0 2000 м дымка 8/5 300 м
[St Ac trans]
+24.0 +22.6 92 +31 +31 очень
душно
1009.9 924.4
21 19.09 штиль 0 2000 м дымка 9/6 300 м
[St Ac trans]
+23.6 +22.4 93 +31 +31 очень
душно
1008.8 923.4
00 20.09 ЮВ 2 2000 м дымка 9/6 300 м
[St Ac trans]
+23.0 +22.1 95 +31 +31 очень
душно
1010.3 924.5
03 20.09 СВ 1 4000 м дымка 9/5 300 м
[St Ac trans]
+25.8 +22.6 83 +34 +37 очень
душно
1009.9 925.4 +21.6
06 20.09 Ю 2 4000 м мгла 8/8 540 м
[Cu hum]
+30.0 +24.1 71 +42 +45 опасность
перегрева
1006.6 923.1
09 20.09 ЮЗ 3 4000 м мгла 8/5 540 м
[Cu med, cong Ac trans]
+29.6 +22.2 64 +38 +40 очень
душно
1004.1 920.8
12 20.09 Ю 2 4000 м мгла 8/5 300 м
[Sc diur, vesp Ac trans]
+27.0 +21.5 72 +34 +34 очень
душно
1006.2 921.8 +31.1
15 20.09 С 2 2000 м дымка 8/5 300 м
[St Ac trans]
+23.4 +21.9 91 +32 +32 очень
душно
1009.9 924.4
18 20.09 СЗ 2 2000 м дымка 8/5 300 м
[St Ac trans]
+23.2 +22.0 93 +32 +32 очень
душно
1009.7 924.2
21 20.09 С 1 2000 м дымка 8/5 300 м
[St Ac trans]
+22.8 +21.9 95 +31 +31 очень
душно
1008.5 922.8
00 21.09 С 1 2000 м дымка 8/5 300 м
[St Ac trans]
+22.4 +21.8 96 +30 +30 очень
душно
1009.3 923.6
03 21.09 В 1 4000 м мгла 8/5 300 м
[Sc Ac trans]
+26.6 +21.7 75 +34 +38 очень
душно
1009.9 925.2 +20.9
06 21.09 З 2 4000 м мгла 9/6 300 м
[Sc Ac trans]
+28.6 +22.6 70 +38 +42 очень
душно
1006.7 922.9
09 21.09 В 3 4000 м мгла 8/5 540 м
[Cu med, cong Ac trans]
+31.6 +23.2 61 +42 +44 опасность
перегрева
1002.3 919.6
12 21.09 С 4 2000 м гроза, ливневой дождь 9/6 240 м
[Cb calv Ac trans]
+23.6 +22.4 93 +31 +31 очень
душно
1007.5 922.2 +31.9 14
15 21.09 С 3 2000 м слаб. дождь {гроза, морось} 9/6 240 м
[Cb calv Ac trans]
+22.2 +21.9 98 +29 +29 очень
душно
1010.6 924.8 16
18 21.09 З 1 2000 м слаб. дождь 9/6 240 м
[Cb calv Ac trans]
+22.0 +22.0 100 +29 +29 очень
душно
1010.4 924.6 18
21 21.09 СЗ 1 2000 м слаб. дождь 9/5 300 м
[Frnb Ac trans]
+22.0 +22.0 100 +29 +29 очень
душно
1010.1 924.3 20
00 22.09 З 2 2000 м слаб. дождь 9/5 300 м
[Frnb Ac trans]
+22.2 +21.9 98 +29 +29 очень
душно
1010.8 925.0 23
03 22.09 З 1 2000 м дымка 9/6 300 м
[St Ac trans]
+25.4 +23.7 90 +35 +37 очень
душно
1011.8 926.8 +20.9 23
06 22.09 В 7 4000 м гроза, ливневой дождь 9/6 240 м
[Cb calv Ac trans]
+25.4 +23.7 90 +35 +36 очень
душно
1010.5 925.5 0.2
09 22.09 В 7 4000 м слаб. дождь 9/6 240 м
[Cb calv As op]
+25.6 +22.1 81 +33 +34 очень
душно
1008.2 923.7 0.4
12 22.09 З 1 2000 м слаб. дождь 9/6 240 м
[Frnb As op]
+21.4 +20.8 96 +27 +27 душно 1011.7 925.5 +27.2 5
15 22.09 С 2 2000 м дымка {дождь} 9/6 240 м
[Frnb As op]
+21.8 +21.5 98 +28 +28 душно 1014.2 927.8 5
18 22.09 З 1 2000 м дымка {дождь} 9/6 240 м
[Frnb As op]
+21.4 +21.1 98 +27 +27 душно 1013.7 927.4 5
21 22.09 Ю 1 2000 м слаб. дождь 9/6 240 м
[Frnb As op]
+21.4 +21.1 98 +27 +27 душно 1013.3 927.0 7
00 23.09 С 1 2000 м слаб. дождь 9/6 240 м
[Frnb As op]
+21.0 +21.0 100 +28 +28 очень
душно
1005.7 928.9 15
03 23.09 З 1 4000 м дымка {дождь} 9/6 240 м
[Frnb Ac trans]
+23.4 +21.6 90 +32 +35 очень
душно
1015.0 929.1 +20.1 15
06 23.09 В 2 4000 м дымка {дождь} 9/5 300 м
[St Ac trans]
+26.2 +22.2 79 +34 +39 очень
душно
1012.6 927.7
09 23.09 В 4 4000 м слаб. дождь 9/5 300 м
[Frnb Ac trans]
+25.0 +21.8 82 +32 +33 очень
душно
1010.3 925.1 0.1
12 23.09 Ю 1 2000 м слаб. дождь 10/5 240 м
[Frnb As op]
+22.4 +22.1 98 +30 +30 очень
душно
1012.2 926.3 +27.3 3

 

Местоположение метеостанции Импхал (Манипур, Индия): широта 24.67 долгота 93.90 высота над уровнем моря 774 м.

В архиве по умолчанию представлена погода в Импхале за последнюю неделю. Архивные данные за месяц целиком и за предыдущие месяцы, начиная с января 2011 года, Вы можете получить, выбрав интересующий диапазон дат из раскрывающегося списка и нажав кнопку "Ввод!".


*Определитесь, кто Вы:
робот инопланетянин человек

Внимание! Время в таблицах - всемирное. Для получения местного времени необходимо прибавить поправку, которая равна 5.5 ч.

Смотрите также архив погоды в соседних городах и на ближайших метеорологических станциях:

Погода в Хафлонге (Ассам, Индия) (105 км)
Погода в Хомалине (Мьянма) (105 км)
Погода в Кохиме (Нагаланд, Индия) (110 км)
Погода в Силчаре (Ассам, Индия) (112 км)
Погода в Молейке (Мьянма) (127 км)
Погода в Ламдинге (Ассам, Индия) (140 км)
Погода в Аиджале (Мизорам, Индия) (159 км)
Погода в Ленгпи (Мизорам, Индия) (160 км)
Погода в Калеве (Мьянма) (168 км)
Погода в Пхалане (Мьянма) (196 км)

Пояснения к столбцам:

Ветер - указаны скорость ветра в м/с - средняя за 10 мин, порывы в срок и между сроками (в фигурных скобках) и направление, откуда дует ветер: С - северный, СВ - северо-восточный, В - восточный, ЮВ - юго-восточный, Ю - южный, ЮЗ - юго-западный, З - западный, СЗ - северо-западный.
Видимость - горизонтальная дальность видимости в метрах или километрах. При видимости от 1 до 10 км при отсутствии осадков обычно наблюдается дымка, при ухудшении видимости до 1 км и менее - туман. В сухую погоду видимость может ухудшаться дымом, пылью или мглою.
Явления - указаны атмосферные явления, наблюдавшиеся в срок или в последний час перед сроком; фигурными скобками обозначены явления, наблюдавшиеся между сроками (за 1-3 часа до срока); квадратными скобками обозначены град или гололедные отложения с указанием их диаметра в мм.
Облачность - указаны через наклонную черту общая и нижняя облачность в баллах и высота нижней границы облаков в метрах; квадратными скобками обозначены формы облаков: Ci - перистые, Cs - перисто-слоистые, Cc - перисто-кучевые, Ac - высококучевые, As - высокослоистые, Sc - слоисто-кучевые, Ns - слоисто-дождевые, Cu - кучевые, Cb - кучево-дождевые. Подробнее классификацию облаков см. в Атласе облаков (PDF).
T - Температура воздуха - температура, измеренная на высоте 2 м над землей.
Td - Температура точки росы - температура, при понижении до которой содержащийся в воздухе водяной пар достигнет насыщения.
f - Относительная влажность воздуха - влажноcть воздуха, измеренная на высоте 2 м над землей.
Te - Эффективная температура - температура, которую ощущает одетый по сезону человек в тени. Характеристика душности погоды. При расчете учитывается влияние влажности воздуха и скорости ветра на теплоощущения человека.
Tes - Эффективная температура на солнце - температура, которую ощущает человек, с поправкой на солнечный нагрев. Характеристика знойности погоды. Зависит от высоты солнца над горизонтом, облачности и скорости ветра. Ночью, в пасмурную погоду, а также при ветре 12 м/с и более поправка равна нулю.
P - Атмосферное давление - приведенное к уровню моря атмосферное давление.
Po - Атмосферное давление - измеренное на уровне метеостанции атмосферное давление.
Tmin - Минимальная температура - минимум температуры воздуха на высоте 2 м над землей.
Tmax - Максимальная температура - максимум температуры воздуха на высоте 2 м над землей.
R - Количество осадков - Количество выпавших осадков за период времени, мм. При наведении курсора мыши на число - период времени, за который выпало указанное количество осадков.
R24 - Количество осадков - Количество выпавших осадков за 24 часа, мм.
S - Снежный покров - Высота снежного покрова, см. При наведении курсора мыши на число - состояние снежного покрова и степень покрытия местности в баллах.